owner,sensor,date,latitude,longitude,vertical_datum,wind_speed,wind_to_direction,wind_speed_of_gust,qcFlag 
DISL,ioos:station:DISL:MHPA:1,2014-03-01T00:00:00Z,30.6671,-87.9365,8.5,3.33,183.4,-9999.0,'1111122,1111122,1111122' 
DISL,ioos:station:DISL:MHPA:1,2014-03-01T00:30:00Z,30.6671,-87.9365,8.5,3.5,139.5,-9999.0,'1111122,1111122,1111122' 
DISL,ioos:station:DISL:MHPA:1,2014-03-01T01:00:00Z,30.6671,-87.9365,8.5,4.82,127.8,-9999.0,'1111122,1111122,1111122' 
DISL,ioos:station:DISL:MHPA:1,2014-03-01T01:30:00Z,30.6671,-87.9365,8.5,5.45,139.5,-9999.0,'1111122,1111122,1111122' 
DISL,ioos:station:DISL:MHPA:1,2014-03-01T02:00:00Z,30.6671,-87.9365,8.5,3.52,140.9,-9999.0,'1111122,1111122,1111122' 
DISL,ioos:station:DISL:MHPA:1,2014-03-01T02:30:00Z,30.6671,-87.9365,8.5,2.77,135.6,-9999.0,'1111122,1111122,1111122' 
DISL,ioos:station:DISL:MHPA:1,2014-03-01T03:00:00Z,30.6671,-87.9365,8.5,2.52,132.4,-9999.0,'1111122,1111122,1111122' 
DISL,ioos:station:DISL:MHPA:1,2014-03-01T03:30:00Z,30.6671,-87.9365,8.5,2.6,154.3,-9999.0,'1111122,1111122,1111122' 
DISL,ioos:station:DISL:MHPA:1,2014-03-01T04:00:00Z,30.6671,-87.9365,8.5,4.14,151.5,-9999.0,'1111122,1111122,1111122' 
DISL,ioos:station:DISL:MHPA:1,2014-03-01T04:30:00Z,30.6671,-87.9365,8.5,5.46,125.5,-9999.0,'1111122,1111122,1111122' 
DISL,ioos:station:DISL:MHPA:1,2014-03-01T05:00:00Z,30.6671,-87.9365,8.5,6.37,120.1,-9999.0,'1111122,1111122,1111122' 
DISL,ioos:station:DISL:MHPA:1,2014-03-01T05:30:00Z,30.6671,-87.9365,8.5,6.05,136.3,-9999.0,'1111122,1111122,1111122' 
DISL,ioos:station:DISL:MHPA:1,2014-03-01T06:00:00Z,30.6671,-87.9365,8.5,6.26,148.3,-9999.0,'1111122,1111122,1111122' 
DISL,ioos:station:DISL:MHPA:1,2014-03-01T06:30:00Z,30.6671,-87.9365,8.5,3.58,137.6,-9999.0,'1111122,1111122,1111122' 
DISL,ioos:station:DISL:MHPA:1,2014-03-01T07:00:00Z,30.6671,-87.9365,8.5,3.06,161.7,-9999.0,'1111122,1111122,1111122' 
DISL,ioos:station:DISL:MHPA:1,2014-03-01T07:30:00Z,30.6671,-87.9365,8.5,4.11,144.0,-9999.0,'1111122,1111122,1111122' 
DISL,ioos:station:DISL:MHPA:1,2014-03-01T08:00:00Z,30.6671,-87.9365,8.5,3.32,134.4,-9999.0,'1111122,1111122,1111122' 
DISL,ioos:station:DISL:MHPA:1,2014-03-01T08:30:00Z,30.6671,-87.9365,8.5,2.06,101.9,-9999.0,'1111122,1111122,1111122' 
DISL,ioos:station:DISL:MHPA:1,2014-03-01T09:00:00Z,30.6671,-87.9365,8.5,2.48,106.3,-9999.0,'1111122,1111122,1111122' 
DISL,ioos:station:DISL:MHPA:1,2014-03-01T09:30:00Z,30.6671,-87.9365,8.5,2.9,116.2,-9999.0,'1111122,1111122,1111122' 
DISL,ioos:station:DISL:MHPA:1,2014-03-01T10:00:00Z,30.6671,-87.9365,8.5,2.23,102.3,-9999.0,'1111122,1111122,1111122' 
DISL,ioos:station:DISL:MHPA:1,2014-03-01T10:30:00Z,30.6671,-87.9365,8.5,1.16,91.1,-9999.0,'1111122,1111122,1111122' 
DISL,ioos:station:DISL:MHPA:1,2014-03-01T11:00:00Z,30.6671,-87.9365,8.5,0.92,118.4,-9999.0,'1111122,1111122,1111122' 
DISL,ioos:station:DISL:MHPA:1,2014-03-01T11:30:00Z,30.6671,-87.9365,8.5,1.45,121.8,-9999.0,'1111122,1111122,1111122' 
DISL,ioos:station:DISL:MHPA:1,2014-03-01T12:00:00Z,30.6671,-87.9365,8.5,1.63,117.9,-9999.0,'1111122,1111122,1111122' 
DISL,ioos:station:DISL:MHPA:1,2014-03-01T12:30:00Z,30.6671,-87.9365,8.5,1.84,98.6,-9999.0,'1111122,1111122,1111122' 
DISL,ioos:station:DISL:MHPA:1,2014-03-01T13:00:00Z,30.6671,-87.9365,8.5,2.57,89.3,-9999.0,'1111122,1111122,1111122' 
DISL,ioos:station:DISL:MHPA:1,2014-03-01T13:30:00Z,30.6671,-87.9365,8.5,3.21,106.0,-9999.0,'1111122,1111122,1111122' 
DISL,ioos:station:DISL:MHPA:1,2014-03-01T14:00:00Z,30.6671,-87.9365,8.5,3.54,111.5,-9999.0,'1111122,1111122,1111122' 
DISL,ioos:station:DISL:MHPA:1,2014-03-01T14:30:00Z,30.6671,-87.9365,8.5,2.71,120.9,-9999.0,'1111122,1111122,1111122' 
DISL,ioos:station:DISL:MHPA:1,2014-03-01T15:00:00Z,30.6671,-87.9365,8.5,3.84,126.7,-9999.0,'1111122,1111122,1111122' 
DISL,ioos:station:DISL:MHPA:1,2014-03-01T15:30:00Z,30.6671,-87.9365,8.5,4.35,159.6,-9999.0,'1111122,1111122,1111122' 
DISL,ioos:station:DISL:MHPA:1,2014-03-01T16:00:00Z,30.6671,-87.9365,8.5,3.66,170.2,-9999.0,'1111122,1111122,1111122' 
DISL,ioos:station:DISL:MHPA:1,2014-03-01T16:30:00Z,30.6671,-87.9365,8.5,3.4,191.5,-9999.0,'1111122,1111122,1111122' 
DISL,ioos:station:DISL:MHPA:1,2014-03-01T17:00:00Z,30.6671,-87.9365,8.5,3.83,185.5,-9999.0,'1111122,1111122,1111122' 
DISL,ioos:station:DISL:MHPA:1,2014-03-01T17:30:00Z,30.6671,-87.9365,8.5,5.17,181.0,-9999.0,'1111122,1111122,1111122' 
DISL,ioos:station:DISL:MHPA:1,2014-03-01T18:00:00Z,30.6671,-87.9365,8.5,5.15,184.1,-9999.0,'1111122,1111122,1111122' 
DISL,ioos:station:DISL:MHPA:1,2014-03-01T18:30:00Z,30.6671,-87.9365,8.5,5.49,187.4,-9999.0,'1111122,1111122,1111122' 
DISL,ioos:station:DISL:MHPA:1,2014-03-01T19:00:00Z,30.6671,-87.9365,8.5,5.65,183.4,-9999.0,'1111122,1111122,1111122' 
DISL,ioos:station:DISL:MHPA:1,2014-03-01T19:30:00Z,30.6671,-87.9365,8.5,6.49,183.5,-9999.0,'1111122,1111122,1111122' 
DISL,ioos:station:DISL:MHPA:1,2014-03-01T20:00:00Z,30.6671,-87.9365,8.5,6.83,180.8,-9999.0,'1111122,1111122,1111122' 
DISL,ioos:station:DISL:MHPA:1,2014-03-01T20:30:00Z,30.6671,-87.9365,8.5,5.75,177.2,-9999.0,'1111122,1111122,1111122' 
DISL,ioos:station:DISL:MHPA:1,2014-03-01T21:00:00Z,30.6671,-87.9365,8.5,5.81,179.8,-9999.0,'1111122,1111122,1111122' 
DISL,ioos:station:DISL:MHPA:1,2014-03-01T21:30:00Z,30.6671,-87.9365,8.5,5.9,179.2,-9999.0,'1111122,1111122,1111122' 
DISL,ioos:station:DISL:MHPA:1,2014-03-01T22:00:00Z,30.6671,-87.9365,8.5,4.67,181.1,-9999.0,'1111122,1111122,1111122' 
DISL,ioos:station:DISL:MHPA:1,2014-03-01T22:30:00Z,30.6671,-87.9365,8.5,4.55,185.9,-9999.0,'1111122,1111122,1111122' 
DISL,ioos:station:DISL:MHPA:1,2014-03-01T23:00:00Z,30.6671,-87.9365,8.5,4.48,178.4,-9999.0,'1111122,1111122,1111122' 
DISL,ioos:station:DISL:MHPA:1,2014-03-01T23:30:00Z,30.6671,-87.9365,8.5,4.13,182.1,-9999.0,'1111122,1111122,1111122' 
DISL,ioos:station:DISL:MHPA:1,2014-03-02T00:00:00Z,30.6671,-87.9365,8.5,4.41,174.3,-9999.0,'1111122,1111122,1111122' 
DISL,ioos:station:DISL:MHPA:1,2014-03-02T00:30:00Z,30.6671,-87.9365,8.5,4.62,167.9,-9999.0,'1111122,1111122,1111122' 
DISL,ioos:station:DISL:MHPA:1,2014-03-02T01:00:00Z,30.6671,-87.9365,8.5,2.68,138.4,-9999.0,'1111122,1111122,1111122' 
DISL,ioos:station:DISL:MHPA:1,2014-03-02T01:30:00Z,30.6671,-87.9365,8.5,3.62,137.7,-9999.0,'1111122,1111122,1111122' 
DISL,ioos:station:DISL:MHPA:1,2014-03-02T02:00:00Z,30.6671,-87.9365,8.5,2.96,135.0,-9999.0,'1111122,1111122,1111122' 
DISL,ioos:station:DISL:MHPA:1,2014-03-02T02:30:00Z,30.6671,-87.9365,8.5,2.46,128.1,-9999.0,'1111122,1111122,1111122' 
DISL,ioos:station:DISL:MHPA:1,2014-03-02T03:00:00Z,30.6671,-87.9365,8.5,3.29,124.7,-9999.0,'1111122,1111122,1111122' 
DISL,ioos:station:DISL:MHPA:1,2014-03-02T03:30:00Z,30.6671,-87.9365,8.5,2.9,116.4,-9999.0,'1111122,1111122,1111122' 
DISL,ioos:station:DISL:MHPA:1,2014-03-02T04:00:00Z,30.6671,-87.9365,8.5,3.05,109.4,-9999.0,'1111122,1111122,1111122' 
DISL,ioos:station:DISL:MHPA:1,2014-03-02T04:30:00Z,30.6671,-87.9365,8.5,3.22,104.3,-9999.0,'1111122,1111122,1111122' 
DISL,ioos:station:DISL:MHPA:1,2014-03-02T05:00:00Z,30.6671,-87.9365,8.5,3.59,102.5,-9999.0,'1111122,1111122,1111122' 
DISL,ioos:station:DISL:MHPA:1,2014-03-02T05:30:00Z,30.6671,-87.9365,8.5,3.51,114.0,-9999.0,'1111122,1111122,1111122' 
DISL,ioos:station:DISL:MHPA:1,2014-03-02T06:00:00Z,30.6671,-87.9365,8.5,3.1,111.4,-9999.0,'1111122,1111122,1111122' 
DISL,ioos:station:DISL:MHPA:1,2014-03-02T06:30:00Z,30.6671,-87.9365,8.5,2.54,120.0,-9999.0,'1111122,1111122,1111122' 
DISL,ioos:station:DISL:MHPA:1,2014-03-02T07:00:00Z,30.6671,-87.9365,8.5,1.97,134.1,-9999.0,'1111122,1111122,1111122' 
DISL,ioos:station:DISL:MHPA:1,2014-03-02T07:30:00Z,30.6671,-87.9365,8.5,1.99,129.0,-9999.0,'1111122,1111122,1111122' 
DISL,ioos:station:DISL:MHPA:1,2014-03-02T08:00:00Z,30.6671,-87.9365,8.5,1.64,126.8,-9999.0,'1111122,1111122,1111122' 
DISL,ioos:station:DISL:MHPA:1,2014-03-02T08:30:00Z,30.6671,-87.9365,8.5,1.65,118.1,-9999.0,'1111122,1111122,1111122' 
DISL,ioos:station:DISL:MHPA:1,2014-03-02T09:00:00Z,30.6671,-87.9365,8.5,1.26,113.6,-9999.0,'1111122,1111122,1111122' 
DISL,ioos:station:DISL:MHPA:1,2014-03-02T09:30:00Z,30.6671,-87.9365,8.5,2.78,107.3,-9999.0,'1111122,1111122,1111122' 
DISL,ioos:station:DISL:MHPA:1,2014-03-02T10:00:00Z,30.6671,-87.9365,8.5,2.38,111.5,-9999.0,'1111122,1111122,1111122' 
DISL,ioos:station:DISL:MHPA:1,2014-03-02T10:30:00Z,30.6671,-87.9365,8.5,2.09,130.1,-9999.0,'1111122,1111122,1111122' 
DISL,ioos:station:DISL:MHPA:1,2014-03-02T11:00:00Z,30.6671,-87.9365,8.5,2.33,118.3,-9999.0,'1111122,1111122,1111122' 
DISL,ioos:station:DISL:MHPA:1,2014-03-02T11:30:00Z,30.6671,-87.9365,8.5,2.54,102.3,-9999.0,'1111122,1111122,1111122' 
DISL,ioos:station:DISL:MHPA:1,2014-03-02T12:00:00Z,30.6671,-87.9365,8.5,2.02,112.0,-9999.0,'1111122,1111122,1111122' 
DISL,ioos:station:DISL:MHPA:1,2014-03-02T12:30:00Z,30.6671,-87.9365,8.5,1.29,102.9,-9999.0,'1111122,1111122,1111122' 
DISL,ioos:station:DISL:MHPA:1,2014-03-02T13:00:00Z,30.6671,-87.9365,8.5,0.66,76.5,-9999.0,'1111122,1111122,1111122' 
DISL,ioos:station:DISL:MHPA:1,2014-03-02T13:30:00Z,30.6671,-87.9365,8.5,0.94,114.1,-9999.0,'1111122,1111122,1111122' 
DISL,ioos:station:DISL:MHPA:1,2014-03-02T14:00:00Z,30.6671,-87.9365,8.5,2.08,102.2,-9999.0,'1111122,1111122,1111122' 
DISL,ioos:station:DISL:MHPA:1,2014-03-02T14:30:00Z,30.6671,-87.9365,8.5,3.28,136.7,-9999.0,'1111122,1111122,1111122' 
DISL,ioos:station:DISL:MHPA:1,2014-03-02T15:00:00Z,30.6671,-87.9365,8.5,4.11,135.7,-9999.0,'1111122,1111122,1111122' 
DISL,ioos:station:DISL:MHPA:1,2014-03-02T15:30:00Z,30.6671,-87.9365,8.5,3.11,137.6,-9999.0,'1111122,1111122,1111122' 
DISL,ioos:station:DISL:MHPA:1,2014-03-02T16:00:00Z,30.6671,-87.9365,8.5,2.92,231.7,-9999.0,'1111122,1111122,1111122' 
DISL,ioos:station:DISL:MHPA:1,2014-03-02T16:30:00Z,30.6671,-87.9365,8.5,2.46,244.8,-9999.0,'1111122,1111122,1111122' 
DISL,ioos:station:DISL:MHPA:1,2014-03-02T17:00:00Z,30.6671,-87.9365,8.5,3.6,249.7,-9999.0,'1111122,1111122,1111122' 
DISL,ioos:station:DISL:MHPA:1,2014-03-02T17:30:00Z,30.6671,-87.9365,8.5,4.01,237.1,-9999.0,'1111122,1111122,1111122' 
DISL,ioos:station:DISL:MHPA:1,2014-03-02T18:00:00Z,30.6671,-87.9365,8.5,4.38,221.1,-9999.0,'1111122,1111122,1111122' 
DISL,ioos:station:DISL:MHPA:1,2014-03-02T18:30:00Z,30.6671,-87.9365,8.5,4.87,213.3,-9999.0,'1111122,1111122,1111122' 
DISL,ioos:station:DISL:MHPA:1,2014-03-02T19:00:00Z,30.6671,-87.9365,8.5,5.07,214.3,-9999.0,'1111122,1111122,1111122' 
DISL,ioos:station:DISL:MHPA:1,2014-03-02T19:30:00Z,30.6671,-87.9365,8.5,5.29,188.7,-9999.0,'1111122,1111122,1111122' 
DISL,ioos:station:DISL:MHPA:1,2014-03-02T20:00:00Z,30.6671,-87.9365,8.5,4.9,201.6,-9999.0,'1111122,1111122,1111122' 
DISL,ioos:station:DISL:MHPA:1,2014-03-02T20:30:00Z,30.6671,-87.9365,8.5,5.25,202.6,-9999.0,'1111122,1111122,1111122' 
DISL,ioos:station:DISL:MHPA:1,2014-03-02T21:00:00Z,30.6671,-87.9365,8.5,5.17,195.1,-9999.0,'1111122,1111122,1111122' 
DISL,ioos:station:DISL:MHPA:1,2014-03-02T21:30:00Z,30.6671,-87.9365,8.5,5.01,188.3,-9999.0,'1111122,1111122,1111122' 
DISL,ioos:station:DISL:MHPA:1,2014-03-02T22:00:00Z,30.6671,-87.9365,8.5,4.42,195.0,-9999.0,'1111122,1111122,1111122' 
DISL,ioos:station:DISL:MHPA:1,2014-03-02T22:30:00Z,30.6671,-87.9365,8.5,5.02,198.0,-9999.0,'1111122,1111122,1111122' 
DISL,ioos:station:DISL:MHPA:1,2014-03-02T23:00:00Z,30.6671,-87.9365,8.5,5.69,185.6,-9999.0,'1111122,1111122,1111122' 
DISL,ioos:station:DISL:MHPA:1,2014-03-02T23:30:00Z,30.6671,-87.9365,8.5,5.35,172.1,-9999.0,'1111122,1111122,1111122' 
DISL,ioos:station:DISL:MHPA:1,2014-03-03T00:00:00Z,30.6671,-87.9365,8.5,3.62,157.2,-9999.0,'1111122,1111122,1111122' 
DISL,ioos:station:DISL:MHPA:1,2014-03-03T00:30:00Z,30.6671,-87.9365,8.5,3.65,146.1,-9999.0,'1111122,1111122,1111122' 
DISL,ioos:station:DISL:MHPA:1,2014-03-03T01:00:00Z,30.6671,-87.9365,8.5,3.42,147.9,-9999.0,'1111122,1111122,1111122' 
DISL,ioos:station:DISL:MHPA:1,2014-03-03T01:30:00Z,30.6671,-87.9365,8.5,2.42,137.5,-9999.0,'1111122,1111122,1111122' 
DISL,ioos:station:DISL:MHPA:1,2014-03-03T02:00:00Z,30.6671,-87.9365,8.5,2.5,149.3,-9999.0,'1111122,1111122,1111122' 
DISL,ioos:station:DISL:MHPA:1,2014-03-03T02:30:00Z,30.6671,-87.9365,8.5,3.04,153.1,-9999.0,'1111122,1111122,1111122' 
DISL,ioos:station:DISL:MHPA:1,2014-03-03T03:00:00Z,30.6671,-87.9365,8.5,2.53,154.4,-9999.0,'1111122,1111122,1111122' 
DISL,ioos:station:DISL:MHPA:1,2014-03-03T03:30:00Z,30.6671,-87.9365,8.5,2.69,149.0,-9999.0,'1111122,1111122,1111122' 
DISL,ioos:station:DISL:MHPA:1,2014-03-03T04:00:00Z,30.6671,-87.9365,8.5,3.37,145.0,-9999.0,'1111122,1111122,1111122' 
DISL,ioos:station:DISL:MHPA:1,2014-03-03T04:30:00Z,30.6671,-87.9365,8.5,4.76,143.9,-9999.0,'1111122,1111122,1111122' 
DISL,ioos:station:DISL:MHPA:1,2014-03-03T05:00:00Z,30.6671,-87.9365,8.5,5.46,150.6,-9999.0,'1111122,1111122,1111122' 
DISL,ioos:station:DISL:MHPA:1,2014-03-03T05:30:00Z,30.6671,-87.9365,8.5,5.0,156.7,-9999.0,'1111122,1111122,1111122' 
DISL,ioos:station:DISL:MHPA:1,2014-03-03T06:00:00Z,30.6671,-87.9365,8.5,3.57,228.2,-9999.0,'1111122,1111122,1111122' 
DISL,ioos:station:DISL:MHPA:1,2014-03-03T06:30:00Z,30.6671,-87.9365,8.5,3.59,207.8,-9999.0,'1111122,1111122,1111122' 
DISL,ioos:station:DISL:MHPA:1,2014-03-03T07:00:00Z,30.6671,-87.9365,8.5,2.44,184.3,-9999.0,'1111122,1111122,1111122' 
DISL,ioos:station:DISL:MHPA:1,2014-03-03T07:30:00Z,30.6671,-87.9365,8.5,2.19,162.9,-9999.0,'1111122,1111122,1111122' 
DISL,ioos:station:DISL:MHPA:1,2014-03-03T08:00:00Z,30.6671,-87.9365,8.5,3.55,158.5,-9999.0,'1111122,1111122,1111122' 
DISL,ioos:station:DISL:MHPA:1,2014-03-03T08:30:00Z,30.6671,-87.9365,8.5,4.14,165.2,-9999.0,'1111122,1111122,1111122' 
DISL,ioos:station:DISL:MHPA:1,2014-03-03T09:00:00Z,30.6671,-87.9365,8.5,4.75,162.9,-9999.0,'1111122,1111122,1111122' 
DISL,ioos:station:DISL:MHPA:1,2014-03-03T09:30:00Z,30.6671,-87.9365,8.5,6.7,162.5,-9999.0,'1111122,1111122,1111122' 
DISL,ioos:station:DISL:MHPA:1,2014-03-03T10:00:00Z,30.6671,-87.9365,8.5,5.55,186.8,-9999.0,'1111122,1111122,1111122' 
DISL,ioos:station:DISL:MHPA:1,2014-03-03T10:30:00Z,30.6671,-87.9365,8.5,3.52,213.6,-9999.0,'1111122,1111122,1111122' 
DISL,ioos:station:DISL:MHPA:1,2014-03-03T11:00:00Z,30.6671,-87.9365,8.5,4.03,192.4,-9999.0,'1111122,1111122,1111122' 
DISL,ioos:station:DISL:MHPA:1,2014-03-03T11:30:00Z,30.6671,-87.9365,8.5,4.19,176.8,-9999.0,'1111122,1111122,1111122' 
DISL,ioos:station:DISL:MHPA:1,2014-03-03T12:00:00Z,30.6671,-87.9365,8.5,3.94,171.2,-9999.0,'1111122,1111122,1111122' 
DISL,ioos:station:DISL:MHPA:1,2014-03-03T12:30:00Z,30.6671,-87.9365,8.5,4.8,162.7,-9999.0,'1111122,1111122,1111122' 
DISL,ioos:station:DISL:MHPA:1,2014-03-03T13:00:00Z,30.6671,-87.9365,8.5,4.43,177.9,-9999.0,'1111122,1111122,1111122' 
DISL,ioos:station:DISL:MHPA:1,2014-03-03T13:30:00Z,30.6671,-87.9365,8.5,4.13,174.8,-9999.0,'1111122,1111122,1111122' 
DISL,ioos:station:DISL:MHPA:1,2014-03-03T14:00:00Z,30.6671,-87.9365,8.5,2.9,196.7,-9999.0,'1111122,1111122,1111122' 
DISL,ioos:station:DISL:MHPA:1,2014-03-03T14:30:00Z,30.6671,-87.9365,8.5,3.55,258.1,-9999.0,'1111122,1111122,1111122' 
DISL,ioos:station:DISL:MHPA:1,2014-03-03T15:00:00Z,30.6671,-87.9365,8.5,8.59,310.0,-9999.0,'1111122,1111122,1111122' 
DISL,ioos:station:DISL:MHPA:1,2014-03-03T15:30:00Z,30.6671,-87.9365,8.5,8.42,309.9,-9999.0,'1111122,1111122,1111122' 
DISL,ioos:station:DISL:MHPA:1,2014-03-03T16:00:00Z,30.6671,-87.9365,8.5,7.82,327.3,-9999.0,'1111122,1111122,1111122' 
DISL,ioos:station:DISL:MHPA:1,2014-03-03T16:30:00Z,30.6671,-87.9365,8.5,7.71,320.8,-9999.0,'1111122,1111122,1111122' 
DISL,ioos:station:DISL:MHPA:1,2014-03-03T17:00:00Z,30.6671,-87.9365,8.5,7.06,321.7,-9999.0,'1111122,1111122,1111122' 
DISL,ioos:station:DISL:MHPA:1,2014-03-03T17:30:00Z,30.6671,-87.9365,8.5,6.71,331.9,-9999.0,'1111122,1111122,1111122' 
DISL,ioos:station:DISL:MHPA:1,2014-03-03T18:00:00Z,30.6671,-87.9365,8.5,7.15,318.8,-9999.0,'1111122,1111122,1111122' 
DISL,ioos:station:DISL:MHPA:1,2014-03-03T18:30:00Z,30.6671,-87.9365,8.5,6.46,338.6,-9999.0,'1111122,1111122,1111122' 
DISL,ioos:station:DISL:MHPA:1,2014-03-03T19:00:00Z,30.6671,-87.9365,8.5,6.55,339.7,-9999.0,'1111122,1111122,1111122' 
DISL,ioos:station:DISL:MHPA:1,2014-03-03T19:30:00Z,30.6671,-87.9365,8.5,5.26,345.7,-9999.0,'1111122,1111122,1111122' 
DISL,ioos:station:DISL:MHPA:1,2014-03-03T20:00:00Z,30.6671,-87.9365,8.5,5.36,357.1,-9999.0,'1111122,1111122,1111122' 
DISL,ioos:station:DISL:MHPA:1,2014-03-03T20:30:00Z,30.6671,-87.9365,8.5,6.04,343.1,-9999.0,'1111122,1111122,1111122' 
DISL,ioos:station:DISL:MHPA:1,2014-03-03T21:00:00Z,30.6671,-87.9365,8.5,6.83,335.6,-9999.0,'1111122,1111122,1111122' 
DISL,ioos:station:DISL:MHPA:1,2014-03-03T21:30:00Z,30.6671,-87.9365,8.5,6.42,351.1,-9999.0,'1111122,1111122,1111122' 
DISL,ioos:station:DISL:MHPA:1,2014-03-03T22:00:00Z,30.6671,-87.9365,8.5,6.12,352.3,-9999.0,'1111122,1111122,1111122' 
DISL,ioos:station:DISL:MHPA:1,2014-03-03T22:30:00Z,30.6671,-87.9365,8.5,6.55,337.1,-9999.0,'1111122,1111122,1111122' 
DISL,ioos:station:DISL:MHPA:1,2014-03-03T23:00:00Z,30.6671,-87.9365,8.5,6.18,336.4,-9999.0,'1111122,1111122,1111122' 
DISL,ioos:station:DISL:MHPA:1,2014-03-03T23:30:00Z,30.6671,-87.9365,8.5,4.6,357.2,-9999.0,'1111122,1111122,1111122' 
DISL,ioos:station:DISL:MHPA:1,2014-03-04T00:00:00Z,30.6671,-87.9365,8.5,5.9,338.4,-9999.0,'1111122,1111122,1111122' 
DISL,ioos:station:DISL:MHPA:1,2014-03-04T00:30:00Z,30.6671,-87.9365,8.5,6.04,336.0,-9999.0,'1111122,1111122,1111122' 
DISL,ioos:station:DISL:MHPA:1,2014-03-04T01:00:00Z,30.6671,-87.9365,8.5,6.07,354.9,-9999.0,'1111122,1111122,1111122' 
DISL,ioos:station:DISL:MHPA:1,2014-03-04T01:30:00Z,30.6671,-87.9365,8.5,5.72,343.9,-9999.0,'1111122,1111122,1111122' 
DISL,ioos:station:DISL:MHPA:1,2014-03-04T02:00:00Z,30.6671,-87.9365,8.5,7.06,340.2,-9999.0,'1111122,1111122,1111122' 
DISL,ioos:station:DISL:MHPA:1,2014-03-04T02:30:00Z,30.6671,-87.9365,8.5,6.29,349.0,-9999.0,'1111122,1111122,1111122' 
DISL,ioos:station:DISL:MHPA:1,2014-03-04T03:00:00Z,30.6671,-87.9365,8.5,4.22,357.0,-9999.0,'1111122,1111122,1111122' 
DISL,ioos:station:DISL:MHPA:1,2014-03-04T03:30:00Z,30.6671,-87.9365,8.5,4.43,12.43,-9999.0,'1111122,1111122,1111122' 
DISL,ioos:station:DISL:MHPA:1,2014-03-04T04:00:00Z,30.6671,-87.9365,8.5,5.09,10.82,-9999.0,'1111122,1111122,1111122' 
DISL,ioos:station:DISL:MHPA:1,2014-03-04T04:30:00Z,30.6671,-87.9365,8.5,5.31,4.454,-9999.0,'1111122,1111122,1111122' 
DISL,ioos:station:DISL:MHPA:1,2014-03-04T05:00:00Z,30.6671,-87.9365,8.5,4.9,348.9,-9999.0,'1111122,1111122,1111122' 
DISL,ioos:station:DISL:MHPA:1,2014-03-04T05:30:00Z,30.6671,-87.9365,8.5,4.92,12.74,-9999.0,'1111122,1111122,1111122' 
DISL,ioos:station:DISL:MHPA:1,2014-03-04T06:00:00Z,30.6671,-87.9365,8.5,5.14,351.1,-9999.0,'1111122,1111122,1111122' 
DISL,ioos:station:DISL:MHPA:1,2014-03-04T06:30:00Z,30.6671,-87.9365,8.5,3.84,6.632,-9999.0,'1111122,1111122,1111122' 
DISL,ioos:station:DISL:MHPA:1,2014-03-04T07:00:00Z,30.6671,-87.9365,8.5,4.34,11.0,-9999.0,'1111122,1111122,1111122' 
DISL,ioos:station:DISL:MHPA:1,2014-03-04T07:30:00Z,30.6671,-87.9365,8.5,4.52,7.28,-9999.0,'1111122,1111122,1111122' 
DISL,ioos:station:DISL:MHPA:1,2014-03-04T08:00:00Z,30.6671,-87.9365,8.5,4.31,1.239,-9999.0,'1111122,1111122,1111122' 
DISL,ioos:station:DISL:MHPA:1,2014-03-04T08:30:00Z,30.6671,-87.9365,8.5,3.52,351.5,-9999.0,'1111122,1111122,1111122' 
DISL,ioos:station:DISL:MHPA:1,2014-03-04T09:00:00Z,30.6671,-87.9365,8.5,4.01,5.229,-9999.0,'1111122,1111122,1111122' 
DISL,ioos:station:DISL:MHPA:1,2014-03-04T09:30:00Z,30.6671,-87.9365,8.5,3.28,13.11,-9999.0,'1111122,1111122,1111122' 
DISL,ioos:station:DISL:MHPA:1,2014-03-04T10:00:00Z,30.6671,-87.9365,8.5,3.75,2.012,-9999.0,'1111122,1111122,1111122' 
DISL,ioos:station:DISL:MHPA:1,2014-03-04T10:30:00Z,30.6671,-87.9365,8.5,3.7,10.07,-9999.0,'1111122,1111122,1111122' 
DISL,ioos:station:DISL:MHPA:1,2014-03-04T11:00:00Z,30.6671,-87.9365,8.5,4.04,1.384,-9999.0,'1111122,1111122,1111122' 
DISL,ioos:station:DISL:MHPA:1,2014-03-04T11:30:00Z,30.6671,-87.9365,8.5,3.0,2.39,-9999.0,'1111122,1111122,1111122' 
DISL,ioos:station:DISL:MHPA:1,2014-03-04T12:00:00Z,30.6671,-87.9365,8.5,3.52,1.214,-9999.0,'1111122,1111122,1111122' 
DISL,ioos:station:DISL:MHPA:1,2014-03-04T12:30:00Z,30.6671,-87.9365,8.5,2.76,7.97,-9999.0,'1111122,1111122,1111122' 
DISL,ioos:station:DISL:MHPA:1,2014-03-04T13:00:00Z,30.6671,-87.9365,8.5,3.55,347.1,-9999.0,'1111122,1111122,1111122' 
DISL,ioos:station:DISL:MHPA:1,2014-03-04T13:30:00Z,30.6671,-87.9365,8.5,2.67,9.27,-9999.0,'1111122,1111122,1111122' 
DISL,ioos:station:DISL:MHPA:1,2014-03-04T14:00:00Z,30.6671,-87.9365,8.5,2.79,2.138,-9999.0,'1111122,1111122,1111122' 
DISL,ioos:station:DISL:MHPA:1,2014-03-04T14:30:00Z,30.6671,-87.9365,8.5,2.78,355.3,-9999.0,'1111122,1111122,1111122' 
DISL,ioos:station:DISL:MHPA:1,2014-03-04T15:00:00Z,30.6671,-87.9365,8.5,2.76,2.524,-9999.0,'1111122,1111122,1111122' 
DISL,ioos:station:DISL:MHPA:1,2014-03-04T15:30:00Z,30.6671,-87.9365,8.5,2.35,355.4,-9999.0,'1111122,1111122,1111122' 
DISL,ioos:station:DISL:MHPA:1,2014-03-04T16:00:00Z,30.6671,-87.9365,8.5,3.66,344.2,-9999.0,'1111122,1111122,1111122' 
DISL,ioos:station:DISL:MHPA:1,2014-03-04T16:30:00Z,30.6671,-87.9365,8.5,2.67,351.4,-9999.0,'1111122,1111122,1111122' 
DISL,ioos:station:DISL:MHPA:1,2014-03-04T17:00:00Z,30.6671,-87.9365,8.5,2.28,322.9,-9999.0,'1111122,1111122,1111122' 
DISL,ioos:station:DISL:MHPA:1,2014-03-04T17:30:00Z,30.6671,-87.9365,8.5,3.12,343.0,-9999.0,'1111122,1111122,1111122' 
DISL,ioos:station:DISL:MHPA:1,2014-03-04T18:00:00Z,30.6671,-87.9365,8.5,3.78,345.2,-9999.0,'1111122,1111122,1111122' 
DISL,ioos:station:DISL:MHPA:1,2014-03-04T18:30:00Z,30.6671,-87.9365,8.5,3.04,357.8,-9999.0,'1111122,1111122,1111122' 
DISL,ioos:station:DISL:MHPA:1,2014-03-04T19:00:00Z,30.6671,-87.9365,8.5,2.34,357.9,-9999.0,'1111122,1111122,1111122' 
DISL,ioos:station:DISL:MHPA:1,2014-03-04T19:30:00Z,30.6671,-87.9365,8.5,2.76,4.288,-9999.0,'1111122,1111122,1111122' 
DISL,ioos:station:DISL:MHPA:1,2014-03-04T20:00:00Z,30.6671,-87.9365,8.5,1.85,25.24,-9999.0,'1111122,1111122,1111122' 
DISL,ioos:station:DISL:MHPA:1,2014-03-04T20:30:00Z,30.6671,-87.9365,8.5,3.71,319.3,-9999.0,'1111122,1111122,1111122' 
DISL,ioos:station:DISL:MHPA:1,2014-03-04T21:00:00Z,30.6671,-87.9365,8.5,3.34,3.345,-9999.0,'1111122,1111122,1111122' 
DISL,ioos:station:DISL:MHPA:1,2014-03-04T21:30:00Z,30.6671,-87.9365,8.5,2.3,0.464,-9999.0,'1111122,1111122,1111122' 
DISL,ioos:station:DISL:MHPA:1,2014-03-04T22:00:00Z,30.6671,-87.9365,8.5,1.9,37.41,-9999.0,'1111122,1111122,1111122' 
DISL,ioos:station:DISL:MHPA:1,2014-03-04T22:30:00Z,30.6671,-87.9365,8.5,1.93,28.22,-9999.0,'1111122,1111122,1111122' 
DISL,ioos:station:DISL:MHPA:1,2014-03-04T23:00:00Z,30.6671,-87.9365,8.5,2.06,19.11,-9999.0,'1111122,1111122,1111122' 
DISL,ioos:station:DISL:MHPA:1,2014-03-04T23:30:00Z,30.6671,-87.9365,8.5,1.59,18.26,-9999.0,'1111122,1111122,1111122' 
DISL,ioos:station:DISL:MHPA:1,2014-03-05T00:00:00Z,30.6671,-87.9365,8.5,2.05,357.6,-9999.0,'1111122,1111122,1111122' 
DISL,ioos:station:DISL:MHPA:1,2014-03-05T00:30:00Z,30.6671,-87.9365,8.5,1.97,346.1,-9999.0,'1111122,1111122,1111122' 
DISL,ioos:station:DISL:MHPA:1,2014-03-05T01:00:00Z,30.6671,-87.9365,8.5,2.85,351.7,-9999.0,'1111122,1111122,1111122' 
DISL,ioos:station:DISL:MHPA:1,2014-03-05T01:30:00Z,30.6671,-87.9365,8.5,2.7,355.4,-9999.0,'1111122,1111122,1111122' 
DISL,ioos:station:DISL:MHPA:1,2014-03-05T02:00:00Z,30.6671,-87.9365,8.5,3.67,337.2,-9999.0,'1111122,1111122,1111122' 
DISL,ioos:station:DISL:MHPA:1,2014-03-05T02:30:00Z,30.6671,-87.9365,8.5,3.23,357.8,-9999.0,'1111122,1111122,1111122' 
DISL,ioos:station:DISL:MHPA:1,2014-03-05T03:00:00Z,30.6671,-87.9365,8.5,3.11,353.0,-9999.0,'1111122,1111122,1111122' 
DISL,ioos:station:DISL:MHPA:1,2014-03-05T03:30:00Z,30.6671,-87.9365,8.5,2.41,0.585,-9999.0,'1111122,1111122,1111122' 
DISL,ioos:station:DISL:MHPA:1,2014-03-05T04:00:00Z,30.6671,-87.9365,8.5,2.95,354.6,-9999.0,'1111122,1111122,1111122' 
DISL,ioos:station:DISL:MHPA:1,2014-03-05T04:30:00Z,30.6671,-87.9365,8.5,2.0,357.9,-9999.0,'1111122,1111122,1111122' 